Location: Krakow
(50.0830°N, 19.9170°E)
Time: 07:43:42
(UTC+02:00)

A-11 Canister half - Pass Details

Date: 19 March 2026
Orbit: 1523 x 1684 km, 47.3° (Epoch: 18 April)

Event Time Altitude Azimuth Distance (km) Brightness Sun altitude
Rises 05:33:44 0° 169° (S) 4,909 11.8 -2.7°
Reaches altitude 10° 05:39:59 10° 140° (SE) 3,900 11.7 -1.7°
Maximum altitude 05:42:57 12° 123° (ESE) 3,753 12.1 -1.3°
Drops below altitude 10° 05:45:54 10° 105° (ESE) 3,873 12.9 -0.8°
Sets 05:51:59 0° 76° (ENE) 4,824 13.6 0.2°
